Weather History for McComb, MS

Change the Weather History Date:

Friday, December 16, 2011

  Actual Average Record
Temperature  
Mean Temperature 58 °F -  
Max Temperature 66 °F 59 °F 82 °F (1971)
Min Temperature 50 °F 36 °F 17 °F (1989)
Degree Days  
Heating Degree Days 7    
Growing Degree Days 8 (Base 50)    
Moisture  
Dew Point 58 °F    
Average Humidity 96    
Maximum Humidity 100    
Minimum Humidity 92    
Precipitation  
Precipitation 0.02 in - - ()
Sea Level Pressure  
Sea Level Pressure 30.20 in    
Wind  
Wind Speed 6 mph (North)    
Max Wind Speed 14 mph    
Max Gust Speed 18 mph    
Visibility 6 miles    
Events Fog , Rain    
Averages and records for this station are not official NWS values.
T = Trace of Precipitation, MM = Missing Value Source: NWS Daily Summary

Daily Weather History Graph

Daily Weather History Graph

Search for Another Location

Airport:

Trip Planner

Search our weather history database for the weather conditions in past years. The results will help you decide how hot, cold, wet, or windy it might be!

Date:

Astronomy

Dec. 16, 2011 Rise Set
Actual Time 6:53 AM CST 5:01 PM CST
Civil Twilight 6:26 AM CST 5:28 PM CST
Nautical Twilight 5:56 AM CST 5:58 PM CST
Astronomical Twilight 5:26 AM CST 6:28 PM CST
Moon 11:12 PM CST 10:59 AM CST
Length of Visible Light 11h 01m
Length of Day
10h 08m
Waning Gibbous, 64% of the Moon is Illuminated
Dec 16
Waning Gibbous
Dec 17
Last Quarter
Dec 24
New
Jan 1
First Quarter
Jan 9
Full

Hourly Weather History & Observations

Time (CST) Temp. Dew Point Humidity Pressure Visibility Wind Dir Wind Speed Gust Speed Precip Events Conditions
12:53 AM 66.0 °F 64.0 °F 93% 30.11 in 8.0 mi SSE 8.1 mph - N/A   Overcast
1:53 AM 64.9 °F 64.0 °F 97% 30.11 in 8.0 mi South 11.5 mph - N/A   Overcast
2:53 AM 64.9 °F 64.0 °F 97% 30.11 in 7.0 mi South 8.1 mph - N/A   Overcast
4:53 AM 64.0 °F 63.0 °F 96% 30.12 in 5.0 mi South 5.8 mph - N/A   Overcast
5:03 AM 64.4 °F 62.6 °F 94% 30.13 in 5.0 mi South 3.5 mph - N/A   Overcast
5:39 AM 64.4 °F 62.6 °F 94% 30.13 in 2.5 mi South 3.5 mph - N/A   Overcast
5:53 AM 64.0 °F 63.0 °F 96% 30.13 in 1.8 mi Calm Calm - N/A   Overcast
6:27 AM 62.6 °F 62.6 °F 100% 30.14 in 0.8 mi SSE 5.8 mph - N/A   Mist
6:50 AM 62.6 °F 62.6 °F 100% 30.15 in 1.0 mi Calm Calm - N/A   Mist
6:53 AM 63.0 °F 63.0 °F 100% 30.14 in 1.0 mi SSW 3.5 mph - N/A   Mist
7:18 AM 62.6 °F 62.6 °F 100% 30.15 in 0.2 mi South 3.5 mph - N/A Fog Fog
7:53 AM 64.0 °F 64.0 °F 100% 30.16 in 0.2 mi South 3.5 mph - N/A Fog Fog
8:53 AM 64.9 °F 64.9 °F 100% 30.19 in 0.2 mi Calm Calm - N/A Fog Fog
9:05 AM 64.4 °F 64.4 °F 100% 30.20 in 0.8 mi Calm Calm - N/A   Mist
9:12 AM 64.4 °F 64.4 °F 100% 30.20 in 2.0 mi Calm Calm - N/A   Overcast
9:21 AM 66.2 °F 64.4 °F 94% 30.20 in 5.0 mi SSW 3.5 mph - N/A   Overcast
9:53 AM 66.0 °F 64.9 °F 96% 30.21 in 4.0 mi SSW 4.6 mph - N/A   Overcast
10:39 AM 60.8 °F 59.0 °F 94% 30.20 in 5.0 mi NNE 6.9 mph - 0.00 in   Overcast
10:53 AM 60.1 °F 59.0 °F 96% 30.20 in 7.0 mi North 5.8 mph - 0.00 in   Overcast
11:19 AM 60.8 °F 59.0 °F 94% 30.21 in 5.0 mi North 6.9 mph - 0.00 in Rain Light Rain
11:53 AM 61.0 °F 59.0 °F 93% 30.20 in 7.0 mi North 4.6 mph - 0.01 in   Overcast
12:53 PM 60.1 °F 57.9 °F 93% 30.19 in 10.0 mi North 5.8 mph - N/A   Overcast
1:53 PM 59.0 °F 57.0 °F 93% 30.18 in 8.0 mi North 5.8 mph - N/A   Overcast
2:10 PM 59.0 °F 57.2 °F 94% 30.18 in 3.0 mi North 5.8 mph - 0.00 in Rain Light Rain
2:53 PM 57.9 °F 57.0 °F 97% 30.18 in 10.0 mi NNW 4.6 mph - 0.01 in   Overcast
3:00 PM 59.0 °F 57.2 °F 94% 30.19 in 10.0 mi North 5.8 mph - N/A   Overcast
3:41 PM 57.2 °F 55.4 °F 94% 30.20 in 10.0 mi North 9.2 mph - N/A   Overcast
3:53 PM 57.0 °F 55.9 °F 96% 30.20 in 9.0 mi NNW 12.7 mph - N/A   Overcast
4:41 PM 55.4 °F 53.6 °F 94% 30.22 in 9.0 mi North 13.8 mph 18.4 mph N/A   Overcast
4:53 PM 55.0 °F 54.0 °F 96% 30.22 in 5.0 mi North 11.5 mph - N/A   Overcast
5:24 PM 53.6 °F 51.8 °F 94% 30.24 in 10.0 mi North 10.4 mph - N/A   Overcast
5:34 PM 53.6 °F 51.8 °F 94% 30.25 in 10.0 mi North 10.4 mph - N/A   Overcast
5:53 PM 52.0 °F 51.1 °F 97% 30.25 in 10.0 mi North 10.4 mph - N/A   Overcast
6:53 PM 51.1 °F 48.9 °F 92% 30.27 in 10.0 mi North 9.2 mph - N/A   Overcast
7:53 PM 50.0 °F 48.0 °F 93% 30.28 in 10.0 mi North 6.9 mph - N/A   Overcast
8:53 PM 50.0 °F 48.0 °F 93% 30.29 in 10.0 mi North 4.6 mph - N/A   Overcast
9:53 PM 50.0 °F 48.0 °F 93% 30.30 in 10.0 mi North 8.1 mph - N/A   Overcast
10:53 PM 50.0 °F 48.0 °F 93% 30.30 in 10.0 mi North 10.4 mph - N/A   Overcast
11:53 PM 50.0 °F 48.0 °F 93% 30.30 in 8.0 mi North 9.2 mph - N/A   Overcast